[[{"header":{"parameterUnit":"m.s-1","parameterCategory":2,"la1":30.2991,"la2":30.254,"lo1":-89.0895,"lo2":-89.0444,"dy":0.0017,"dx":0.0017,"nx":28,"ny":28,"refTime":"2023-10-24T21:00:00:Z","depth":"0","parameterNumber":2,"parameterNumberName":"U-component_of_CURRENTS"},"data":[0,0,0,0,0,0,0,0,0,0,0,0,0,0,0,0,0,0,0,0,0,0,0,0,0,0,0,0,0,0,0,0,0,0,0,0,0,0,0,0,0,0,0,0,0,0,0,0,0,0,0,0,0,0,0,0,0,0,-0.2167,-0.2167,0,-0.2196,-0.2197,-0.2198,-0.2251,-0.2251,-0.2252,-0.2252,-0.2286,-0.2286,-0.2287,0,0,0,0,0,0,0,0,0,0,0,0,0,-0.2157,-0.2157,-0.2167,-0.2167,-0.2167,-0.2196,-0.2197,-0.2198,-0.2251,-0.2251,-0.2252,-0.2252,-0.2286,-0.2286,-0.2287,0,0,0,0,0,0,0,0,0,0,0,0,0,-0.2178,-0.2157,-0.2167,-0.2191,-0.2193,-0.2196,-0.2197,-0.2198,-0.2251,-0.2251,-0.2252,-0.2252,-0.2285,-0.2286,-0.2287,-0.2282,0,0,-0.229,-0.229,0,0,0,0,0,0,0,0,-0.2177,-0.2179,-0.2188,-0.2189,-0.2191,-0.2214,-0.2205,-0.2224,-0.2251,-0.2237,-0.2252,-0.2253,-0.2257,-0.226,-0.2275,-0.2284,-0.2285,-0.229,-0.229,-0.2291,-0.2291,0,0,0,0,0,0,0,-0.2175,-0.2178,-0.2186,-0.2187,-0.2189,-0.2199,-0.2204,-0.221,-0.2249,-0.2238,-0.224,-0.2231,-0.2259,-0.2274,-0.2276,-0.2286,-0.229,-0.2291,-0.2291,-0.2292,-0.2318,-0.2318,0,0,0,0,0,0,-0.2156,-0.2177,-0.2185,-0.2186,-0.2177,-0.2198,-0.2204,-0.2212,-0.2249,-0.2253,-0.2231,-0.2233,-0.2272,-0.2275,-0.2277,-0.2305,-0.2291,-0.2292,-0.2292,-0.2318,-0.2318,-0.2318,0,0,0,0,0,0,-0.2156,-0.2158,-0.2184,-0.2175,-0.2178,-0.2197,-0.2207,-0.2212,-0.2237,-0.2242,-0.2248,-0.2249,-0.2273,-0.2276,-0.2299,-0.2305,-0.2292,-0.2293,-0.2318,-0.2318,-0.2318,-0.234,0,0,0,0,0,0,-0.2156,-0.2158,-0.2167,-0.2175,-0.2178,-0.2226,-0.2206,-0.2212,-0.2226,-0.2231,-0.226,-0.2263,-0.2274,-0.2298,-0.23,-0.2306,-0.2294,-0.2317,-0.2318,-0.2318,-0.2339,-0.2341,-0.2342,0,0,0,0,0,-0.2156,-0.2172,-0.2168,-0.2169,-0.2188,-0.2227,-0.2233,-0.2251,-0.2226,-0.2268,-0.2264,-0.2263,-0.2301,-0.2299,-0.2302,-0.2308,-0.2317,-0.2318,-0.2318,-0.2338,-0.234,-0.2342,0,0,0,0,0,0,-0.2177,-0.2178,-0.2175,-0.2191,-0.2221,-0.2234,-0.2247,-0.2251,-0.228,-0.2269,-0.2271,-0.2276,-0.2301,-0.2297,-0.2295,-0.2315,-0.2306,-0.2307,-0.232,-0.2323,-0.2324,-0.2289,-0.2294,0,0,0,0,0,-0.218,-0.2187,-0.2204,-0.2216,-0.2223,-0.2231,-0.2243,-0.2261,-0.2274,-0.2288,-0.23,-0.2298,-0.2302,-0.2307,-0.2324,-0.2332,-0.2284,-0.2335,-0.2336,-0.2338,-0.231,-0.2261,-0.2255,-0.232,-0.232,-0.232,0,0,-0.2182,-0.2184,-0.2186,-0.2219,-0.2225,-0.2243,-0.2244,-0.227,-0.2276,-0.2283,-0.2297,-0.2315,-0.2308,-0.2328,-0.2336,-0.2326,-0.2293,-0.2339,-0.234,-0.2311,-0.226,-0.2254,-0.2248,-0.232,-0.232,-0.232,0,0,-0.2182,-0.2198,-0.22,-0.2232,-0.2251,-0.2259,-0.2267,-0.2294,-0.2304,-0.2329,-0.2319,-0.2334,-0.2355,-0.2348,-0.234,-0.2354,-0.2311,-0.2366,-0.2339,-0.2293,-0.2286,-0.228,-0.22,-0.2187,-0.2358,-0.2359,-0.2359,0,-0.2175,-0.2185,-0.2213,-0.2232,-0.2234,-0.226,-0.2266,-0.2287,-0.2323,-0.2312,-0.2341,-0.2336,-0.2354,-0.2323,-0.234,-0.2356,-0.2309,-0.2336,-0.2293,-0.2286,-0.2279,-0.2199,-0.2184,-0.236,-0.2359,-0.2359,-0.2359,0,-0.218,-0.2194,-0.2198,-0.2214,-0.2242,-0.2257,-0.2279,-0.2304,-0.2306,-0.2314,-0.2315,-0.2341,-0.2329,-0.2348,-0.2351,-0.2311,-0.2286,-0.2309,-0.2285,-0.2274,-0.219,-0.2174,-0.2361,-0.2361,-0.236,-0.236,0,0,-0.2106,-0.218,-0.2176,-0.218,-0.2228,-0.2242,-0.2253,-0.2257,-0.2238,-0.2287,-0.225,-0.2282,-0.2292,-0.2282,-0.2293,-0.226,-0.2192,-0.2264,-0.2261,-0.2177,-0.2054,-0.2015,-0.1993,-0.221,-0.2208,-0.2206,-0.201,0,-0.2075,-0.2105,-0.2146,-0.2153,-0.2158,-0.2197,-0.2205,-0.2224,-0.2236,-0.2229,-0.2228,-0.2225,-0.2264,-0.2266,-0.2238,-0.2214,-0.2151,-0.224,-0.2082,-0.2075,-0.2037,-0.1974,-0.1981,-0.1806,-0.1994,-0.1991,-0.1989,0,-0.2032,-0.2059,-0.2075,-0.2105,-0.2107,-0.2122,-0.2114,-0.2132,-0.2137,-0.215,-0.2143,-0.2158,-0.2121,-0.2166,-0.2069,-0.2125,-0.2075,-0.205,-0.2042,-0.198,-0.2006,-0.185,-0.1769,-0.1798,-0.1964,-0.1966,-0.1968,0,-0.1942,-0.1983,-0.1987,-0.2008,-0.2069,-0.2061,-0.2072,-0.2096,-0.2082,-0.2091,-0.2081,-0.2062,-0.2038,-0.199,-0.196,-0.2007,-0.1834,-0.1894,-0.179,-0.1785,-0.1743,-0.1739,-0.1662,-0.1783,-0.1784,-0.1784,-0.1785,0,-0.1877,-0.1867,-0.1948,-0.1958,-0.1922,-0.2,-0.1961,-0.1982,-0.1998,-0.1968,-0.2024,-0.1984,-0.1996,-0.1922,-0.1897,-0.1774,-0.1773,-0.1742,-0.1724,-0.1751,-0.175,-0.1737,-0.1756,-0.1777,-0.1778,-0.178,-0.1781,0,-0.1762,-0.1837,-0.1822,-0.188,-0.1883,-0.1853,-0.1864,-0.1845,-0.1899,-0.1855,-0.1854,-0.1881,-0.181,-0.1783,-0.1693,-0.1675,-0.1558,-0.1533,-0.1548,-0.1536,-0.1501,-0.1521,-0.1327,-0.1292,-0.1383,-0.1381,-0.1379,0,-0.1694,-0.1692,-0.1727,-0.1715,-0.173,-0.1713,-0.1698,-0.1759,-0.1748,-0.1781,-0.1739,-0.1701,-0.1664,-0.1517,-0.1487,-0.1387,-0.1414,-0.1323,-0.1425,-0.1455,-0.1465,-0.1468,-0.1455,-0.1367,-0.1365,-0.1363,-0.1362,0,-0.1531,-0.1559,-0.1568,-0.1554,-0.1535,-0.1518,-0.1514,-0.1496,-0.1577,-0.1575,-0.1572,-0.1563,-0.1478,-0.1424,-0.1321,-0.1268,-0.133,-0.1288,-0.132,-0.1423,-0.1416,-0.139,-0.1524,-0.1349,-0.135,-0.1351,-0.1352,-0.1352,-0.1375,-0.1338,-0.1374,-0.1347,-0.1349,-0.1343,-0.1301,-0.1337,-0.1328,-0.1362,-0.1409,-0.1426,-0.1424,-0.131,-0.124,-0.1193,-0.1185,-0.1213,-0.122,-0.121,-0.1219,-0.13,-0.1122,-0.1122,-0.1122,-0.1122,-0.1122,0,-0.1166,-0.1177,-0.1157,-0.1158,-0.1141,-0.1192,-0.1189,-0.1171,-0.1153,-0.1233,-0.1264,-0.1356,-0.1307,-0.1295,-0.1247,-0.119,-0.1164,-0.1153,-0.1196,-0.1175,-0.1247,-0.1299,-0.1151,-0.1151,-0.1151,-0.1151,-0.1151,-0.1151,-0.1061,-0.1,-0.102,-0.0959,-0.0977,-0.0934,-0.0927,-0.0936,-0.0986,-0.1058,-0.1166,-0.1279,-0.1308,-0.1383,-0.1319,-0.1242,-0.1209,-0.1143,-0.1117,-0.1251,-0.126,-0.1269,-0.1325,-0.1184,-0.1184,-0.1057,-0.1056,-0.1056]},{"header":{"parameterUnit":"m.s-1","parameterCategory":2,"la1":30.2991,"la2":30.254,"lo1":-89.0895,"lo2":-89.0444,"dy":0.0017,"dx":0.0017,"nx":28,"ny":28,"refTime":"2023-10-24T21:00:00:Z","depth":"0","parameterNumber":3,"parameterNumberName":"V-component_of_CURRENTS"},"data":[0,0,0,0,0,0,0,0,0,0,0,0,0,0,0,0,0,0,0,0,0,0,0,0,0,0,0,0,0,0,0,0,0,0,0,0,0,0,0,0,0,0,0,0,0,0,0,0,0,0,0,0,0,0,0,0,0,0,-0.0164,-0.0163,0,-0.0002,0.0,0.0002,0.0085,0.0084,0.0084,0.0084,0.0236,0.024,0.0244,0,0,0,0,0,0,0,0,0,0,0,0,0,-0.0289,-0.0288,-0.0164,-0.0163,-0.0161,-0.0002,0.0001,0.0003,0.0085,0.0084,0.0084,0.0084,0.0234,0.0239,0.0244,0,0,0,0,0,0,0,0,0,0,0,0,0,-0.019,-0.0287,-0.0165,-0.0103,-0.0096,-0.0002,0.0001,0.0004,0.0085,0.0084,0.0084,0.0084,0.0233,0.0239,0.0245,0.029,0,0,0.0265,0.0267,0,0,0,0,0,0,0,0,-0.0195,-0.0185,-0.0114,-0.0107,-0.0099,0.0019,0.0012,0.0098,0.0085,0.0019,0.0084,0.0084,0.0161,0.0173,0.0208,0.0297,0.0304,0.0265,0.0269,0.0272,0.0273,0,0,0,0,0,0,0,-0.0203,-0.0191,-0.0097,-0.0112,-0.0103,-0.0044,-0.0031,0.003,0.0091,0.0025,0.003,0.0044,0.0165,0.0202,0.0212,0.0306,0.0265,0.0271,0.0274,0.0277,0.0419,0.0419,0,0,0,0,0,0,-0.0233,-0.0198,-0.0103,-0.0093,-0.0152,-0.0042,-0.0027,-0.0017,0.0091,0.0107,0.0044,0.0047,0.0191,0.0205,0.0218,0.0264,0.0272,0.0278,0.0281,0.0419,0.0419,0.0419,0,0,0,0,0,0,-0.0237,-0.0227,-0.0109,-0.0143,-0.0125,-0.0041,-0.0029,-0.0013,0.0019,0.0106,0.0121,0.0059,0.0191,0.0209,0.0265,0.0271,0.028,0.0286,0.0419,0.0419,0.0419,0.0365,0,0,0,0,0,0,-0.0241,-0.0229,-0.0227,-0.0146,-0.0124,-0.0055,-0.0028,-0.001,0.0027,0.0033,0.0124,0.0138,0.0193,0.0255,0.0271,0.028,0.0291,0.0419,0.0419,0.0419,0.0367,0.0363,0.036,0,0,0,0,0,-0.0246,-0.0243,-0.0228,-0.0216,-0.0126,-0.0055,-0.0038,0.0023,0.0027,0.0049,0.01,0.0135,0.0266,0.0261,0.028,0.029,0.0419,0.0419,0.0419,0.0368,0.0364,0.036,0,0,0,0,0,0,-0.0293,-0.0232,-0.0214,-0.0193,-0.0132,-0.0043,-0.0024,0.0015,0.0075,0.0072,0.0144,0.0163,0.0212,0.0256,0.0248,0.0328,0.0345,0.0349,0.03,0.0297,0.0293,0.0278,0.0296,0,0,0,0,0,-0.0306,-0.0291,-0.0219,-0.0202,-0.0182,-0.0108,-0.0074,-0.003,0.0032,0.0058,0.0123,0.018,0.0229,0.0264,0.0319,0.037,0.0403,0.0385,0.0382,0.0379,0.0378,0.0436,0.0438,0.0418,0.0418,0.0418,0,0,-0.0321,-0.0285,-0.0277,-0.0211,-0.0168,-0.0128,-0.0088,-0.004,-0.0006,0.0064,0.0122,0.0172,0.0238,0.0292,0.0318,0.033,0.0397,0.0379,0.0375,0.0376,0.0436,0.0438,0.044,0.0418,0.0418,0.0418,0,0,-0.0342,-0.0317,-0.0311,-0.026,-0.0196,-0.0148,-0.0142,-0.0055,-0.0021,0.0042,0.009,0.0142,0.023,0.0284,0.0316,0.0327,0.0372,0.0339,0.032,0.0376,0.0378,0.0381,0.0403,0.0408,0.0342,0.0342,0.0342,0,-0.0363,-0.0342,-0.0295,-0.0266,-0.0232,-0.0167,-0.0143,-0.0092,0.0008,0.0034,0.0048,0.0173,0.0226,0.029,0.029,0.0321,0.0347,0.0329,0.0372,0.0375,0.0378,0.0401,0.0407,0.034,0.034,0.034,0.034,0,-0.0371,-0.0346,-0.034,-0.0289,-0.0245,-0.0212,-0.0142,-0.0097,-0.006,-0.0003,0.0064,0.0144,0.0221,0.0239,0.0268,0.0319,0.0326,0.0355,0.038,0.0377,0.04,0.0408,0.0336,0.0337,0.0338,0.0338,0,0,-0.0426,-0.0363,-0.0355,-0.0334,-0.0254,-0.0217,-0.0175,-0.011,-0.0071,0.0001,0.0056,0.0126,0.0172,0.0211,0.0264,0.0308,0.0344,0.0334,0.0338,0.035,0.0444,0.0356,0.0355,0.0383,0.0384,0.0385,0.0443,0,-0.0446,-0.0421,-0.037,-0.033,-0.0315,-0.0237,-0.0192,-0.0123,-0.0061,0.0015,0.0075,0.0151,0.0161,0.021,0.0248,0.0343,0.0364,0.0324,0.045,0.0453,0.0372,0.0362,0.0378,0.0422,0.045,0.0451,0.0452,0,-0.0459,-0.0444,-0.0428,-0.0354,-0.0338,-0.0297,-0.0215,-0.0159,-0.0054,0.0001,0.0071,0.014,0.0221,0.023,0.0349,0.0324,0.0364,0.0416,0.042,0.0363,0.0378,0.0436,0.0435,0.0508,0.0464,0.0463,0.0462,0,-0.0527,-0.0469,-0.047,-0.0442,-0.0355,-0.0329,-0.0277,-0.0173,-0.0111,-0.0001,0.007,0.0158,0.0242,0.0301,0.0384,0.0382,0.0501,0.0525,0.0469,0.0463,0.0513,0.0508,0.0596,0.0578,0.0578,0.0577,0.0577,0,-0.0556,-0.0542,-0.0501,-0.0491,-0.0457,-0.0382,-0.0317,-0.0242,-0.0124,-0.0037,0.0057,0.0145,0.0267,0.035,0.0393,0.0442,0.0508,0.0455,0.0474,0.0489,0.0482,0.0576,0.0614,0.0579,0.0579,0.0579,0.0578,0,-0.06,-0.0583,-0.0566,-0.0509,-0.0486,-0.0459,-0.0338,-0.0277,-0.0164,-0.0041,-0.0,0.0161,0.0255,0.0337,0.0458,0.0465,0.0543,0.0506,0.0486,0.0499,0.0482,0.0515,0.06,0.061,0.0463,0.0461,0.0459,0,-0.0616,-0.0622,-0.0587,-0.0571,-0.054,-0.0487,-0.0431,-0.0314,-0.0232,-0.0037,0.0026,0.0151,0.0221,0.0335,0.0388,0.0426,0.0487,0.0449,0.0434,0.0467,0.0522,0.055,0.0555,0.0489,0.0488,0.0487,0.0486,0,-0.063,-0.0626,-0.0611,-0.0591,-0.0553,-0.0495,-0.041,-0.0356,-0.02,-0.0114,0.0012,0.007,0.0196,0.0261,0.0308,0.0333,0.0489,0.0424,0.051,0.0571,0.0565,0.0588,0.0442,0.0478,0.0479,0.0479,0.048,0.048,-0.0628,-0.0624,-0.0609,-0.0579,-0.0545,-0.0489,-0.0453,-0.0369,-0.0283,-0.0146,-0.0066,0.0014,0.0183,0.0243,0.028,0.0398,0.0391,0.0444,0.0489,0.0517,0.0502,0.0281,0.0294,0.0294,0.0294,0.0294,0.0294,0,-0.061,-0.0602,-0.0584,-0.0552,-0.0521,-0.0498,-0.0416,-0.0387,-0.0336,-0.0235,-0.0173,0.0008,0.0126,0.0282,0.0458,0.0507,0.0543,0.0543,0.0652,0.0657,0.0529,0.0503,0.05,0.05,0.05,0.05,0.05,0.05,-0.0598,-0.0578,-0.0571,-0.0523,-0.0508,-0.0472,-0.0444,-0.0425,-0.0367,-0.0278,-0.0176,-0.0092,0.0195,0.0557,0.0724,0.0712,0.0792,0.076,0.078,0.0767,0.0764,0.0761,0.0746,0.0795,0.0795,0.092,0.0921,0.0922]}],[{"header":{"parameterUnit":"m.s-1","parameterCategory":2,"la1":30.2991,"la2":30.254,"lo1":-89.0895,"lo2":-89.0444,"dy":0.0017,"dx":0.0017,"nx":28,"ny":28,"refTime":"2023-10-24T21:00:00:Z","depth":"2","parameterNumber":2,"parameterNumberName":"U-component_of_CURRENTS"},"data":[0,0,0,0,0,0,0,0,0,0,0,0,0,0,0,0,0,0,0,0,0,0,0,0,0,0,0,0,0,0,0,0,0,0,0,0,0,0,0,0,0,0,0,0,0,0,0,0,0,0,0,0,0,0,0,0,0,0,-0.1839,-0.1838,0,-0.1821,-0.1821,-0.1822,-0.1907,-0.1909,-0.191,-0.1912,-0.2058,-0.206,-0.2062,0,0,0,0,0,0,0,0,0,0,0,0,0,-0.1845,-0.1846,-0.1839,-0.1838,-0.1837,-0.1821,-0.1821,-0.1822,-0.1906,-0.1909,-0.1911,-0.1913,-0.2057,-0.2059,-0.2062,0,0,0,0,0,0,0,0,0,0,0,0,0,-0.1842,-0.1846,-0.1839,-0.1873,-0.1875,-0.1821,-0.1821,-0.1822,-0.1906,-0.1909,-0.1912,-0.1914,-0.2056,-0.2059,-0.2062,-0.2025,0,0,-0.2072,-0.2073,0,0,0,0,0,0,0,0,-0.1843,-0.1843,-0.1869,-0.187,-0.1873,-0.1863,-0.1876,-0.1896,-0.1905,-0.1901,-0.1912,-0.1916,-0.2002,-0.2009,-0.2006,-0.2032,-0.2038,-0.2072,-0.2074,-0.2075,-0.2076,0,0,0,0,0,0,0,-0.1843,-0.1843,-0.1838,-0.1867,-0.187,-0.1854,-0.1858,-0.188,-0.1943,-0.1901,-0.1906,-0.1893,-0.2005,-0.2003,-0.2011,-0.204,-0.2072,-0.2075,-0.2077,-0.2078,-0.2143,-0.2143,0,0,0,0,0,0,-0.1834,-0.1844,-0.1839,-0.1837,-0.1857,-0.1851,-0.1857,-0.1869,-0.194,-0.195,-0.1891,-0.1897,-0.1996,-0.2007,-0.2016,-0.2086,-0.2075,-0.2078,-0.208,-0.2143,-0.2143,-0.2143,0,0,0,0,0,0,-0.1835,-0.1835,-0.1839,-0.1833,-0.1832,-0.1848,-0.1861,-0.1867,-0.1879,-0.1929,-0.1944,-0.1898,-0.1999,-0.2012,-0.2038,-0.2089,-0.208,-0.2083,-0.2144,-0.2143,-0.2143,-0.2156,0,0,0,0,0,0,-0.1836,-0.1836,-0.1834,-0.1834,-0.1832,-0.183,-0.1858,-0.1864,-0.1862,-0.1871,-0.1939,-0.1955,-0.2002,-0.2033,-0.2041,-0.2093,-0.2085,-0.2144,-0.2144,-0.2143,-0.2155,-0.2156,-0.2156,0,0,0,0,0,-0.1837,-0.1819,-0.1835,-0.1833,-0.1833,-0.1829,-0.1828,-0.1851,-0.186,-0.1872,-0.19,-0.1954,-0.2039,-0.2033,-0.2044,-0.2098,-0.2144,-0.2144,-0.2143,-0.2155,-0.2156,-0.2156,0,0,0,0,0,0,-0.1832,-0.1824,-0.1844,-0.183,-0.1841,-0.1842,-0.185,-0.1843,-0.1868,-0.1897,-0.1931,-0.1948,-0.2003,-0.2022,-0.2015,-0.2112,-0.2108,-0.2109,-0.2114,-0.2115,-0.2115,-0.2095,-0.2088,0,0,0,0,0,-0.1823,-0.1816,-0.1818,-0.1817,-0.183,-0.1837,-0.1832,-0.1853,-0.1869,-0.1884,-0.1917,-0.1961,-0.2001,-0.2033,-0.2074,-0.2103,-0.2064,-0.2148,-0.2148,-0.2149,-0.2136,-0.2092,-0.2086,-0.2142,-0.2142,-0.2142,0,0,-0.1826,-0.1817,-0.1818,-0.1814,-0.184,-0.1851,-0.1847,-0.1867,-0.1875,-0.1896,-0.193,-0.1963,-0.2005,-0.206,-0.2087,-0.2088,-0.2108,-0.2148,-0.2149,-0.2136,-0.2091,-0.2085,-0.208,-0.2142,-0.2142,-0.2142,0,0,-0.1817,-0.1832,-0.1825,-0.1846,-0.1866,-0.1866,-0.1867,-0.1881,-0.1902,-0.1908,-0.1945,-0.1981,-0.2027,-0.2075,-0.21,-0.2112,-0.2109,-0.2147,-0.2143,-0.21,-0.2095,-0.209,-0.2012,-0.2,-0.2151,-0.2151,-0.2151,0,-0.1809,-0.1816,-0.1824,-0.184,-0.185,-0.1872,-0.1882,-0.19,-0.1912,-0.1914,-0.1934,-0.198,-0.2035,-0.2078,-0.2105,-0.2119,-0.2071,-0.2144,-0.2099,-0.2094,-0.2089,-0.201,-0.1997,-0.2152,-0.2152,-0.2152,-0.2152,0,-0.1818,-0.1828,-0.1841,-0.1865,-0.1872,-0.1898,-0.1921,-0.1937,-0.1944,-0.1943,-0.1975,-0.2017,-0.204,-0.2083,-0.2106,-0.2117,-0.2085,-0.2102,-0.2098,-0.2084,-0.2002,-0.1988,-0.2153,-0.2152,-0.2152,-0.2152,0,0,-0.1761,-0.1824,-0.1828,-0.1847,-0.1893,-0.1893,-0.1928,-0.1931,-0.1932,-0.1963,-0.1939,-0.203,-0.2037,-0.2062,-0.2103,-0.2086,-0.2024,-0.2083,-0.2081,-0.2003,-0.1889,-0.1837,-0.1815,-0.203,-0.2028,-0.2027,-0.1839,0,-0.1758,-0.1783,-0.1807,-0.1832,-0.1851,-0.1895,-0.1912,-0.1931,-0.1935,-0.1926,-0.1966,-0.1983,-0.2035,-0.2055,-0.2044,-0.204,-0.199,-0.2071,-0.1916,-0.191,-0.1864,-0.1799,-0.1734,-0.1558,-0.1825,-0.1822,-0.1821,0,-0.1737,-0.1755,-0.1782,-0.1814,-0.1828,-0.1841,-0.1857,-0.1875,-0.1891,-0.1903,-0.1914,-0.1931,-0.1946,-0.1975,-0.192,-0.1966,-0.1919,-0.1897,-0.1889,-0.1825,-0.1832,-0.162,-0.1522,-0.1796,-0.1798,-0.18,-0.1802,0,-0.167,-0.1715,-0.1728,-0.1756,-0.181,-0.1818,-0.1832,-0.186,-0.1852,-0.1876,-0.1854,-0.1877,-0.1863,-0.1833,-0.1814,-0.1857,-0.1702,-0.1755,-0.1642,-0.1637,-0.1542,-0.1531,-0.166,-0.166,-0.1661,-0.1661,-0.1662,0,-0.1634,-0.1635,-0.1704,-0.1722,-0.1707,-0.1777,-0.1752,-0.1784,-0.1799,-0.1757,-0.183,-0.1775,-0.1823,-0.1753,-0.1747,-0.1634,-0.164,-0.1605,-0.158,-0.1542,-0.1534,-0.1726,-0.1736,-0.1654,-0.1656,-0.1657,-0.1658,0,-0.154,-0.161,-0.1605,-0.1666,-0.1674,-0.166,-0.1671,-0.1654,-0.171,-0.1645,-0.165,-0.1663,-0.1598,-0.1603,-0.1532,-0.1523,-0.1451,-0.1398,-0.1337,-0.1309,-0.1424,-0.1438,-0.1252,-0.1249,-0.1246,-0.1243,-0.1241,0,-0.1483,-0.1485,-0.1525,-0.1519,-0.1538,-0.1535,-0.1523,-0.1584,-0.1557,-0.1547,-0.149,-0.1447,-0.14,-0.1291,-0.128,-0.1223,-0.1289,-0.1103,-0.1196,-0.1386,-0.138,-0.1398,-0.1415,-0.1057,-0.1053,-0.105,-0.1048,0,-0.1344,-0.1372,-0.1379,-0.1374,-0.1362,-0.1344,-0.1337,-0.131,-0.1362,-0.1347,-0.1304,-0.1284,-0.1192,-0.1131,-0.1069,-0.1027,-0.1132,-0.1043,-0.1217,-0.1193,-0.1193,-0.1191,-0.1215,-0.1023,-0.1026,-0.1027,-0.1029,-0.103,-0.1208,-0.1176,-0.1204,-0.1187,-0.119,-0.1175,-0.1133,-0.1147,-0.1125,-0.1114,-0.1124,-0.1095,-0.1057,-0.0964,-0.0887,-0.0845,-0.0931,-0.0917,-0.0928,-0.0943,-0.0977,-0.0974,-0.0766,-0.0767,-0.0768,-0.0768,-0.0769,0,-0.1023,-0.1028,-0.1011,-0.101,-0.0987,-0.1039,-0.1017,-0.0981,-0.0949,-0.0968,-0.0976,-0.0868,-0.0834,-0.0799,-0.072,-0.0694,-0.072,-0.0646,-0.0706,-0.073,-0.0752,-0.0781,-0.0515,-0.0514,-0.0514,-0.0513,0,0,-0.0927,-0.0865,-0.0878,-0.0814,-0.0832,-0.078,-0.0766,-0.0747,-0.0753,-0.0731,-0.0747,-0.0831,-0.0814,-0.0689,-0.0633,-0.0574,-0.0648,-0.0536,-0.0741,-0.0838,-0.0859,-0.0905,-0.0976,0,0,0,0,0]},{"header":{"parameterUnit":"m.s-1","parameterCategory":2,"la1":30.2991,"la2":30.254,"lo1":-89.0895,"lo2":-89.0444,"dy":0.0017,"dx":0.0017,"nx":28,"ny":28,"refTime":"2023-10-24T21:00:00:Z","depth":"2","parameterNumber":3,"parameterNumberName":"V-component_of_CURRENTS"},"data":[0,0,0,0,0,0,0,0,0,0,0,0,0,0,0,0,0,0,0,0,0,0,0,0,0,0,0,0,0,0,0,0,0,0,0,0,0,0,0,0,0,0,0,0,0,0,0,0,0,0,0,0,0,0,0,0,0,0,-0.0214,-0.0213,0,-0.0108,-0.0107,-0.0106,-0.0035,-0.0035,-0.0034,-0.0034,0.0161,0.0166,0.0171,0,0,0,0,0,0,0,0,0,0,0,0,0,-0.0303,-0.0302,-0.0215,-0.0213,-0.0212,-0.0109,-0.0107,-0.0106,-0.0035,-0.0035,-0.0034,-0.0034,0.016,0.0165,0.0171,0,0,0,0,0,0,0,0,0,0,0,0,0,-0.0237,-0.0302,-0.0215,-0.0165,-0.0159,-0.0109,-0.0107,-0.0105,-0.0035,-0.0035,-0.0034,-0.0033,0.0158,0.0165,0.0172,0.0204,0,0,0.0194,0.0197,0,0,0,0,0,0,0,0,-0.0241,-0.0234,-0.0173,-0.0168,-0.0162,-0.0085,-0.0067,0.0002,-0.0035,-0.0082,-0.0034,-0.0033,0.0086,0.0099,0.0118,0.0213,0.0222,0.0195,0.0199,0.0202,0.0204,0,0,0,0,0,0,0,-0.0246,-0.0238,-0.0172,-0.0172,-0.0165,-0.013,-0.012,-0.0053,-0.0,-0.0077,-0.0072,-0.0062,0.009,0.0111,0.0123,0.0224,0.0194,0.0201,0.0205,0.0208,0.037,0.037,0,0,0,0,0,0,-0.0264,-0.0242,-0.0175,-0.0169,-0.0202,-0.0129,-0.0118,-0.011,-0.0003,0.0013,-0.0063,-0.0059,0.0098,0.0115,0.013,0.0194,0.0202,0.0209,0.0213,0.037,0.037,0.037,0,0,0,0,0,0,-0.0266,-0.0259,-0.0179,-0.0203,-0.0191,-0.0129,-0.0119,-0.0108,-0.0087,0.0008,0.0026,-0.0054,0.0099,0.012,0.0166,0.0202,0.0212,0.0219,0.037,0.037,0.037,0.031,0,0,0,0,0,0,-0.0269,-0.026,-0.026,-0.0205,-0.019,-0.0152,-0.012,-0.0106,-0.0082,-0.0076,0.0022,0.004,0.0101,0.0155,0.0173,0.0212,0.0224,0.037,0.037,0.037,0.0312,0.0307,0.0304,0,0,0,0,0,-0.0273,-0.0274,-0.026,-0.0252,-0.0192,-0.0153,-0.0142,-0.0095,-0.0082,-0.0074,-0.0027,0.0037,0.0169,0.0159,0.0182,0.0223,0.037,0.037,0.037,0.0313,0.0308,0.0304,0,0,0,0,0,0,-0.0309,-0.0266,-0.0249,-0.0237,-0.02,-0.0141,-0.013,-0.0103,-0.006,-0.0049,0.0026,0.0047,0.0105,0.016,0.0147,0.0267,0.0286,0.029,0.0235,0.0232,0.0228,0.0219,0.023,0,0,0,0,0,-0.032,-0.031,-0.0263,-0.0253,-0.0241,-0.019,-0.0169,-0.0132,-0.0087,-0.0067,-0.0005,0.0064,0.0123,0.0168,0.0228,0.0289,0.0326,0.0333,0.0329,0.0325,0.0331,0.0395,0.0397,0.037,0.037,0.037,0,0,-0.0332,-0.0306,-0.03,-0.026,-0.023,-0.0204,-0.0175,-0.0141,-0.0112,-0.0051,-0.0001,0.005,0.013,0.0194,0.0228,0.0246,0.0346,0.0325,0.0321,0.033,0.0395,0.0398,0.04,0.0369,0.037,0.037,0,0,-0.0349,-0.033,-0.0328,-0.0295,-0.0249,-0.0216,-0.0213,-0.0154,-0.0125,-0.0082,-0.0028,0.0029,0.0119,0.019,0.0234,0.0246,0.0314,0.0273,0.0267,0.0328,0.0331,0.0334,0.0356,0.0361,0.0285,0.0284,0.0284,0,-0.0365,-0.0351,-0.0321,-0.03,-0.0276,-0.0228,-0.0212,-0.0174,-0.0104,-0.0082,-0.0074,0.0056,0.0123,0.0211,0.0213,0.0243,0.0267,0.0277,0.0323,0.0327,0.0331,0.0353,0.036,0.0282,0.0282,0.0282,0.0282,0,-0.0374,-0.0355,-0.0352,-0.0313,-0.0285,-0.0261,-0.0207,-0.0174,-0.0144,-0.0102,-0.0031,0.0046,0.0129,0.0163,0.0192,0.0269,0.0269,0.0298,0.0332,0.033,0.0353,0.0362,0.0277,0.0278,0.0279,0.028,0,0,-0.0419,-0.0372,-0.0366,-0.0349,-0.0286,-0.0264,-0.0223,-0.0176,-0.0138,-0.0081,-0.0032,0.0058,0.01,0.0151,0.0215,0.027,0.031,0.0291,0.0295,0.0307,0.0412,0.0316,0.0316,0.0342,0.0344,0.0346,0.0405,0,-0.0435,-0.042,-0.0379,-0.0349,-0.0341,-0.0275,-0.0236,-0.0178,-0.0131,-0.0069,0.0007,0.0082,0.0098,0.0153,0.0202,0.0304,0.0333,0.0289,0.0417,0.042,0.0332,0.0324,0.0317,0.0361,0.0413,0.0415,0.0416,0,-0.045,-0.044,-0.0431,-0.0369,-0.0356,-0.0324,-0.0254,-0.0206,-0.0112,-0.0066,0.0007,0.0071,0.0176,0.0182,0.0322,0.029,0.0332,0.0388,0.0393,0.0335,0.0341,0.0379,0.0375,0.0431,0.043,0.0428,0.0427,0,-0.0509,-0.0464,-0.0467,-0.0445,-0.0374,-0.0349,-0.0306,-0.0216,-0.016,-0.0057,0.0005,0.0108,0.0196,0.0266,0.0356,0.0353,0.0483,0.0507,0.0447,0.044,0.0476,0.0468,0.057,0.057,0.057,0.057,0.057,0,-0.0537,-0.0527,-0.0495,-0.0488,-0.046,-0.0395,-0.0338,-0.027,-0.0164,-0.0092,0.0005,0.008,0.0223,0.0307,0.0361,0.0417,0.0488,0.0437,0.0453,0.0448,0.0437,0.0541,0.0537,0.0572,0.0572,0.0571,0.0571,0,-0.0576,-0.0565,-0.0554,-0.0506,-0.0486,-0.0463,-0.0356,-0.0301,-0.0197,-0.0095,-0.0054,0.009,0.0186,0.0286,0.042,0.0434,0.0498,0.0486,0.044,0.0446,0.041,0.0402,0.0448,0.0445,0.0443,0.0441,0.0439,0,-0.0593,-0.0601,-0.0574,-0.0562,-0.0536,-0.049,-0.0439,-0.0332,-0.026,-0.0104,-0.0051,0.0063,0.0124,0.0258,0.0326,0.039,0.0419,0.0399,0.0385,0.0389,0.04,0.0396,0.0392,0.0415,0.0414,0.0412,0.0411,0,-0.0609,-0.0607,-0.0596,-0.0581,-0.0548,-0.0498,-0.0422,-0.0375,-0.0242,-0.0167,-0.0073,-0.0026,0.0093,0.0164,0.0235,0.0268,0.039,0.0365,0.0438,0.0413,0.0354,0.0365,0.0364,0.0399,0.04,0.0401,0.0401,0.0402,-0.061,-0.0608,-0.0597,-0.0572,-0.0543,-0.0494,-0.0461,-0.0386,-0.031,-0.0196,-0.0145,-0.0076,0.0031,0.0104,0.0176,0.0249,0.025,0.0289,0.0297,0.0306,0.0257,0.0193,0.0198,0.0198,0.0198,0.0199,0.0199,0,-0.0597,-0.059,-0.0576,-0.055,-0.0523,-0.0503,-0.043,-0.0402,-0.0356,-0.0276,-0.0224,-0.0134,-0.0048,0.0059,0.0155,0.0202,0.0252,0.0213,0.0292,0.0302,0.0311,0.0267,0.0209,0.0209,0.021,0.021,0,0,-0.0589,-0.0573,-0.0565,-0.0524,-0.0513,-0.0481,-0.0456,-0.0434,-0.0384,-0.0346,-0.0296,-0.0212,-0.0072,0.0002,0.0091,0.0152,0.0209,0.0153,0.0135,0.0225,0.0234,0.0339,0.0278,0,0,0,0,0]}],[{"header":{"parameterUnit":"m.s-1","parameterCategory":2,"la1":30.2991,"la2":30.254,"lo1":-89.0895,"lo2":-89.0444,"dy":0.0017,"dx":0.0017,"nx":28,"ny":28,"refTime":"2023-10-24T21:00:00:Z","depth":"4","parameterNumber":2,"parameterNumberName":"U-component_of_CURRENTS"},"data":[0,0,0,0,0,0,0,0,0,0,0,0,0,0,0,0,0,0,0,0,0,0,0,0,0,0,0,0,0,0,0,0,0,0,0,0,0,0,0,0,0,0,0,0,0,0,0,0,0,0,0,0,0,0,0,0,0,0,-0.0691,-0.0691,0,-0.0666,-0.0666,-0.0665,-0.0638,-0.0638,-0.0638,-0.0638,-0.0513,-0.051,-0.0506,0,0,0,0,0,0,0,0,0,0,0,0,0,-0.0692,-0.0692,-0.0691,-0.0691,-0.0692,-0.0666,-0.0665,-0.0665,-0.0638,-0.0638,-0.0638,-0.0638,-0.0514,-0.051,-0.0506,0,0,0,0,0,0,0,0,0,0,0,0,0,-0.0678,-0.0692,-0.0691,-0.0678,-0.0677,-0.0666,-0.0665,-0.0665,-0.0638,-0.0638,-0.0638,-0.0638,-0.0515,-0.051,-0.0505,-0.0475,0,0,-0.049,-0.0488,0,0,0,0,0,0,0,0,-0.0679,-0.0677,-0.068,-0.0679,-0.0678,-0.0659,-0.062,-0.0598,-0.0638,-0.0649,-0.0638,-0.0638,-0.0555,-0.0547,-0.0538,-0.0469,-0.0464,-0.049,-0.0487,-0.0485,-0.0483,0,0,0,0,0,0,0,-0.068,-0.0678,-0.0677,-0.068,-0.0679,-0.0665,-0.0663,-0.0616,-0.0597,-0.0648,-0.0647,-0.065,-0.0553,-0.0543,-0.0534,-0.0462,-0.049,-0.0486,-0.0482,-0.048,-0.0416,-0.0417,0,0,0,0,0,0,-0.0692,-0.0679,-0.0678,-0.0677,-0.0683,-0.0666,-0.0663,-0.0662,-0.06,-0.0592,-0.065,-0.0649,-0.0551,-0.054,-0.053,-0.051,-0.0485,-0.048,-0.0477,-0.0415,-0.0416,-0.0418,0,0,0,0,0,0,-0.0692,-0.0692,-0.0679,-0.0681,-0.0679,-0.0666,-0.0665,-0.0661,-0.0666,-0.0604,-0.0593,-0.0661,-0.0551,-0.0537,-0.0507,-0.0504,-0.0478,-0.0473,-0.0413,-0.0415,-0.0417,-0.0458,0,0,0,0,0,0,-0.0692,-0.0692,-0.0702,-0.0682,-0.068,-0.0665,-0.0665,-0.0661,-0.0669,-0.0667,-0.0609,-0.0596,-0.055,-0.0515,-0.0502,-0.0497,-0.0469,-0.0412,-0.0414,-0.0417,-0.0455,-0.0461,-0.0466,0,0,0,0,0,-0.0692,-0.0697,-0.0702,-0.0703,-0.0691,-0.0664,-0.0661,-0.0649,-0.067,-0.0657,-0.0641,-0.0599,-0.0521,-0.0512,-0.0496,-0.049,-0.0411,-0.0414,-0.0416,-0.0452,-0.046,-0.0466,0,0,0,0,0,0,-0.0701,-0.0695,-0.07,-0.0704,-0.0686,-0.0661,-0.066,-0.0664,-0.0644,-0.0646,-0.0605,-0.0591,-0.0568,-0.0532,-0.0524,-0.0485,-0.0463,-0.0463,-0.0495,-0.0502,-0.0507,-0.0536,-0.0465,0,0,0,0,0,-0.071,-0.0715,-0.0699,-0.0704,-0.0697,-0.0688,-0.0684,-0.067,-0.0651,-0.0645,-0.0623,-0.0597,-0.0566,-0.0539,-0.0506,-0.0473,-0.045,-0.0466,-0.0472,-0.0476,-0.0494,-0.0448,-0.0451,-0.0427,-0.0427,-0.0427,0,0,-0.0716,-0.0717,-0.0719,-0.0707,-0.0697,-0.0682,-0.0684,-0.0669,-0.067,-0.0631,-0.0638,-0.0614,-0.0568,-0.0538,-0.0524,-0.0505,-0.0475,-0.048,-0.0484,-0.0499,-0.0451,-0.0453,-0.0455,-0.0429,-0.0429,-0.0429,0,0,-0.0723,-0.0729,-0.0731,-0.0711,-0.0697,-0.0685,-0.0689,-0.0675,-0.0682,-0.0682,-0.0662,-0.0638,-0.061,-0.056,-0.0536,-0.0553,-0.0514,-0.0557,-0.0589,-0.0544,-0.0545,-0.0546,-0.053,-0.0529,-0.0548,-0.0548,-0.0548,0,-0.074,-0.0733,-0.0725,-0.0713,-0.0709,-0.0694,-0.0686,-0.0681,-0.0668,-0.0684,-0.0691,-0.0658,-0.0616,-0.0562,-0.0589,-0.0559,-0.0555,-0.056,-0.0549,-0.0549,-0.0549,-0.0533,-0.0531,-0.0551,-0.055,-0.055,-0.055,0,-0.0721,-0.0728,-0.0724,-0.0713,-0.0704,-0.0686,-0.0679,-0.0687,-0.0717,-0.0722,-0.0716,-0.0664,-0.0647,-0.0627,-0.0622,-0.0597,-0.0603,-0.0567,-0.0527,-0.0554,-0.0535,-0.0533,-0.0554,-0.0553,-0.0552,-0.0552,0,0,-0.0736,-0.072,-0.0724,-0.072,-0.07,-0.0685,-0.0703,-0.0709,-0.0712,-0.0725,-0.0732,-0.0707,-0.0706,-0.0681,-0.064,-0.0607,-0.0608,-0.0614,-0.0611,-0.0592,-0.055,-0.0568,-0.0566,-0.058,-0.0579,-0.0579,-0.0542,0,-0.0732,-0.0717,-0.0719,-0.071,-0.0695,-0.0699,-0.0702,-0.0707,-0.0726,-0.0725,-0.0703,-0.0681,-0.0714,-0.0687,-0.0676,-0.0605,-0.0604,-0.0625,-0.0536,-0.0534,-0.0538,-0.0564,-0.0578,-0.0539,-0.0539,-0.0538,-0.0538,0,-0.0708,-0.0704,-0.0701,-0.0698,-0.0694,-0.0698,-0.0703,-0.0702,-0.0703,-0.0706,-0.0711,-0.0703,-0.067,-0.0681,-0.0623,-0.0646,-0.0645,-0.0596,-0.0592,-0.0595,-0.0546,-0.0505,-0.0532,-0.0532,-0.0533,-0.0533,-0.0534,0,-0.0692,-0.0695,-0.07,-0.0691,-0.0678,-0.0708,-0.0717,-0.0718,-0.0699,-0.0697,-0.0654,-0.066,-0.0605,-0.0613,-0.0604,-0.0614,-0.0535,-0.0505,-0.0523,-0.0524,-0.0497,-0.0497,-0.05,-0.05,-0.05,-0.05,-0.05,0,-0.0667,-0.0676,-0.0699,-0.0686,-0.068,-0.0699,-0.0696,-0.0689,-0.0666,-0.0619,-0.0645,-0.0583,-0.0592,-0.0569,-0.0592,-0.0563,-0.0533,-0.055,-0.0516,-0.0519,-0.0521,-0.0496,-0.0496,-0.0499,-0.0499,-0.05,-0.05,0,-0.0643,-0.0657,-0.0645,-0.0657,-0.0667,-0.0664,-0.0667,-0.064,-0.0616,-0.0547,-0.0539,-0.051,-0.0492,-0.0508,-0.0481,-0.0501,-0.0481,-0.0492,-0.0524,-0.0489,-0.0507,-0.051,-0.0485,-0.0486,-0.0486,-0.0486,-0.0486,0,-0.0636,-0.0627,-0.0613,-0.0592,-0.061,-0.0621,-0.0604,-0.0611,-0.0574,-0.0499,-0.044,-0.0427,-0.043,-0.0396,-0.0437,-0.0475,-0.0492,-0.0482,-0.05,-0.0537,-0.0506,-0.0508,-0.0511,-0.0487,-0.0487,-0.0487,-0.0487,0,-0.0614,-0.0607,-0.0582,-0.0531,-0.0525,-0.049,-0.049,-0.0464,-0.0451,-0.0415,-0.0363,-0.0384,-0.0357,-0.0402,-0.0443,-0.0471,-0.0476,-0.0485,-0.0484,-0.0501,-0.0538,-0.0508,-0.051,-0.0488,-0.0488,-0.0488,-0.0488,0,-0.0588,-0.0559,-0.0517,-0.0464,-0.0427,-0.0376,-0.0394,-0.038,-0.0359,-0.0318,-0.032,-0.0322,-0.0351,-0.0398,-0.0431,-0.047,-0.0473,-0.0468,-0.0468,-0.0468,-0.0488,-0.0533,-0.0464,0,0,0,0,0,-0.0546,-0.0504,-0.0456,-0.0383,-0.0334,-0.0323,-0.03,-0.0323,-0.0341,-0.03,-0.0319,-0.0327,-0.0374,-0.0389,-0.0432,-0.0427,-0.0471,-0.0474,-0.0463,-0.0494,-0.0492,-0.0523,0,0,0,0,0,0,-0.0508,-0.047,-0.044,-0.0327,-0.0275,-0.0227,-0.0224,-0.0238,-0.0236,-0.0264,-0.03,-0.0322,-0.038,-0.0357,-0.0428,-0.0437,-0.0431,-0.0504,-0.0504,-0.0494,-0.0493,-0.0492,-0.0523,0,0,0,0,0]},{"header":{"parameterUnit":"m.s-1","parameterCategory":2,"la1":30.2991,"la2":30.254,"lo1":-89.0895,"lo2":-89.0444,"dy":0.0017,"dx":0.0017,"nx":28,"ny":28,"refTime":"2023-10-24T21:00:00:Z","depth":"4","parameterNumber":3,"parameterNumberName":"V-component_of_CURRENTS"},"data":[0,0,0,0,0,0,0,0,0,0,0,0,0,0,0,0,0,0,0,0,0,0,0,0,0,0,0,0,0,0,0,0,0,0,0,0,0,0,0,0,0,0,0,0,0,0,0,0,0,0,0,0,0,0,0,0,0,0,-0.0299,-0.03,0,-0.0366,-0.0367,-0.0368,-0.0433,-0.0433,-0.0434,-0.0434,-0.0549,-0.0551,-0.0554,0,0,0,0,0,0,0,0,0,0,0,0,0,-0.0258,-0.0258,-0.0299,-0.03,-0.03,-0.0366,-0.0367,-0.0368,-0.0433,-0.0433,-0.0434,-0.0434,-0.0548,-0.0551,-0.0554,0,0,0,0,0,0,0,0,0,0,0,0,0,-0.0299,-0.0258,-0.0299,-0.0337,-0.0341,-0.0366,-0.0367,-0.0369,-0.0432,-0.0433,-0.0434,-0.0435,-0.0547,-0.0551,-0.0555,-0.0565,0,0,-0.0567,-0.0568,0,0,0,0,0,0,0,0,-0.0296,-0.0301,-0.0331,-0.0335,-0.0339,-0.0388,-0.0394,-0.0435,-0.0432,-0.0402,-0.0434,-0.0435,-0.0497,-0.0505,-0.0521,-0.057,-0.0575,-0.0567,-0.0569,-0.0571,-0.0572,0,0,0,0,0,0,0,-0.0293,-0.0298,-0.033,-0.0332,-0.0336,-0.0361,-0.0368,-0.0403,-0.0448,-0.0405,-0.0408,-0.0409,-0.05,-0.0517,-0.0524,-0.0577,-0.0567,-0.057,-0.0573,-0.0574,-0.0705,-0.0706,0,0,0,0,0,0,-0.0275,-0.0295,-0.0328,-0.0331,-0.0315,-0.0361,-0.0369,-0.0375,-0.0447,-0.0457,-0.0409,-0.0412,-0.051,-0.0519,-0.0528,-0.0582,-0.0571,-0.0575,-0.0577,-0.0704,-0.0706,-0.0707,0,0,0,0,0,0,-0.0274,-0.0277,-0.0325,-0.0312,-0.0319,-0.036,-0.0367,-0.0376,-0.0399,-0.0449,-0.0461,-0.0423,-0.051,-0.0523,-0.0572,-0.0585,-0.0577,-0.058,-0.0703,-0.0705,-0.0706,-0.0666,0,0,0,0,0,0,-0.0272,-0.0277,-0.028,-0.031,-0.0319,-0.0348,-0.0366,-0.0376,-0.0396,-0.0402,-0.0465,-0.0476,-0.0512,-0.0566,-0.0576,-0.0591,-0.0583,-0.0702,-0.0704,-0.0706,-0.0665,-0.0666,-0.0666,0,0,0,0,0,-0.0271,-0.0278,-0.028,-0.0284,-0.032,-0.0348,-0.0356,-0.039,-0.0396,-0.0413,-0.0455,-0.0475,-0.0587,-0.057,-0.0581,-0.0597,-0.0701,-0.0703,-0.0706,-0.0665,-0.0666,-0.0666,0,0,0,0,0,0,-0.0265,-0.0286,-0.0288,-0.0302,-0.0323,-0.0358,-0.0379,-0.0387,-0.0432,-0.0439,-0.0484,-0.0499,-0.0544,-0.058,-0.056,-0.0645,-0.0649,-0.0654,-0.0615,-0.0615,-0.0616,-0.0597,-0.0586,0,0,0,0,0,-0.026,-0.027,-0.0291,-0.0301,-0.0316,-0.0343,-0.0358,-0.0373,-0.041,-0.043,-0.0475,-0.0525,-0.0563,-0.0595,-0.0636,-0.0681,-0.0678,-0.0703,-0.0703,-0.0702,-0.0698,-0.073,-0.0732,-0.0715,-0.0715,-0.0715,0,0,-0.0261,-0.027,-0.0277,-0.0299,-0.0325,-0.035,-0.0357,-0.038,-0.0396,-0.0435,-0.0488,-0.0521,-0.0572,-0.0622,-0.0648,-0.0656,-0.0695,-0.0706,-0.0705,-0.07,-0.0733,-0.0734,-0.0735,-0.0717,-0.0717,-0.0716,0,0,-0.0268,-0.0278,-0.0294,-0.0311,-0.0334,-0.0353,-0.0356,-0.0394,-0.0413,-0.0448,-0.0482,-0.0533,-0.0592,-0.0644,-0.0671,-0.0701,-0.0687,-0.0705,-0.0701,-0.0732,-0.0733,-0.0734,-0.0675,-0.0672,-0.0716,-0.0716,-0.0715,0,-0.0269,-0.0285,-0.0303,-0.0322,-0.0337,-0.0355,-0.0375,-0.0395,-0.0441,-0.0459,-0.0465,-0.0562,-0.0609,-0.067,-0.0675,-0.0703,-0.0673,-0.069,-0.0729,-0.073,-0.0732,-0.0673,-0.0669,-0.0714,-0.0714,-0.0714,-0.0714,0,-0.0293,-0.0303,-0.0318,-0.0348,-0.0367,-0.0387,-0.041,-0.0431,-0.0446,-0.047,-0.0521,-0.0581,-0.064,-0.0662,-0.0671,-0.0711,-0.0665,-0.0712,-0.0719,-0.0731,-0.0667,-0.0664,-0.0711,-0.0712,-0.0713,-0.0713,0,0,-0.03,-0.0329,-0.0332,-0.0345,-0.0378,-0.0397,-0.0421,-0.0454,-0.0476,-0.0513,-0.055,-0.0613,-0.0632,-0.0664,-0.0693,-0.072,-0.0691,-0.0703,-0.0706,-0.0625,-0.067,-0.0587,-0.0574,-0.0728,-0.0729,-0.0729,-0.0598,0,-0.0315,-0.0344,-0.0354,-0.0385,-0.041,-0.0424,-0.0449,-0.0475,-0.0502,-0.0546,-0.0589,-0.0647,-0.0635,-0.0666,-0.0681,-0.071,-0.0689,-0.0717,-0.0688,-0.0686,-0.0597,-0.0573,-0.0732,-0.0596,-0.0595,-0.0595,-0.0594,0,-0.0339,-0.0352,-0.0383,-0.0404,-0.0418,-0.0438,-0.0479,-0.0498,-0.0548,-0.0571,-0.0611,-0.0645,-0.0686,-0.0687,-0.0687,-0.0691,-0.0654,-0.0661,-0.0658,-0.0597,-0.06,-0.06,-0.0589,-0.0589,-0.0589,-0.059,-0.059,0,-0.0347,-0.0371,-0.0392,-0.0403,-0.0438,-0.045,-0.0468,-0.0514,-0.0531,-0.0596,-0.063,-0.0665,-0.0697,-0.0683,-0.0654,-0.0671,-0.0627,-0.0676,-0.0547,-0.0538,-0.0668,-0.067,-0.0649,-0.0649,-0.065,-0.065,-0.065,0,-0.036,-0.0378,-0.0397,-0.0414,-0.0437,-0.0459,-0.0488,-0.0517,-0.0557,-0.0583,-0.0643,-0.0661,-0.0698,-0.0674,-0.0638,-0.055,-0.0607,-0.0517,-0.0511,-0.0646,-0.0647,-0.0661,-0.0664,-0.0645,-0.0646,-0.0647,-0.0648,0,-0.0371,-0.0385,-0.0411,-0.0438,-0.0444,-0.0465,-0.0484,-0.0506,-0.0555,-0.0589,-0.0614,-0.0653,-0.0618,-0.0602,-0.0577,-0.0529,-0.048,-0.0424,-0.0489,-0.0492,-0.0359,-0.0362,-0.0281,-0.0278,-0.0274,-0.0272,-0.0269,0,-0.0384,-0.0398,-0.0423,-0.0433,-0.0445,-0.0464,-0.0475,-0.0504,-0.0514,-0.0566,-0.0575,-0.0573,-0.0577,-0.0459,-0.0445,-0.0343,-0.0338,-0.029,-0.0388,-0.0325,-0.0327,-0.0335,-0.0342,-0.0264,-0.0264,-0.0263,-0.0262,0,-0.0403,-0.0411,-0.0425,-0.0438,-0.0452,-0.0462,-0.0469,-0.0467,-0.0493,-0.0539,-0.053,-0.051,-0.0449,-0.0401,-0.0305,-0.0248,-0.0335,-0.0258,-0.0266,-0.0357,-0.0304,-0.0311,-0.0322,-0.0251,-0.0253,-0.0254,-0.0254,0,-0.0413,-0.0423,-0.0432,-0.0439,-0.0454,-0.0457,-0.0458,-0.0446,-0.0452,-0.049,-0.0461,-0.0455,-0.0445,-0.0343,-0.0262,-0.0192,-0.0199,-0.0209,-0.0219,-0.0231,-0.0275,-0.0204,-0.0094,0,0,0,0,0,-0.042,-0.0422,-0.0428,-0.0439,-0.0449,-0.0459,-0.0454,-0.045,-0.0454,-0.0435,-0.0446,-0.0387,-0.0302,-0.028,-0.0191,-0.0206,-0.0185,-0.01,-0.0202,-0.019,-0.0203,-0.0258,0,0,0,0,0,0,-0.0426,-0.0434,-0.0426,-0.0431,-0.0436,-0.045,-0.0449,-0.0452,-0.0423,-0.0426,-0.0372,-0.037,-0.0276,-0.0355,-0.0196,-0.0178,-0.0229,-0.0066,-0.0064,-0.0183,-0.0194,-0.0204,-0.0266,0,0,0,0,0]}]]